TDRS 5

Last updated on Mon Nov 03 2025 00:02:46 GMT+0000 (Coordinated Universal Time)

1 21639U 91054B 25306.36214771 .00000093 00000+0 00000+0 0 9997 2 21639 14.0994 355.4400 0014588 252.2148 117.0111 1.00267823125448
UTC large
Height (km)
Speed (km/s)
/
Latitude / Longitude
Inclination (degrees)
Orbital Period (minutes)
Azimuth
Elevation
Range (km)
Doppler Factor

Next 0 passes for location: London (51.5072 / 0.1276)

Sorry there are no passes over London.